Tracking 30415 objects as of 14-May-2025
HD Live streaming from Space Station
objects crossing your sky now

GALAXY 10R

Track GALAXY 10R now!
GALAXY 10R is classified as:


NORAD ID: 26056
Int'l Code: 2000-002A
Perigee: 35,955.7 km
Apogee: 35,990.1 km
Inclination: 11.5 °
Period: 1,445.3 minutes
Semi major axis: 42343 km
RCS: 16.229 m2 (large)
Launch date: January 25, 2000
Source: United States (US)
Launch site: FRENCH GUIANA (FRGUI)

Digital and voice communications; 24 C-band< 24 Ku-band; North America.
Your satellite tracking list
Your tracking list is empty




NASA's NSSDC Master Catalog

Two Line Element Set (TLE):
1 26056U 00002A   25133.50021787  .00000041  00000-0  00000+0 0  9999
2 26056  11.5391  34.2207 0004063 135.1150 127.9262  0.99636113 92343
Source of the keplerian elements: AFSPC